Home > Weather > French Lick > Past weeks

Flag for USA Past Weather in French Lick, Indiana, USA — Yesterday and Last 2 Weeks

Now
77 °F

Clear.


Feels Like: 78 °F
Forecast: 75 / 94 °F
Wind: 5 mph from Northeast

Location: Huntingburg Airport

Current Time: Jul 24, 2016 at 2:58:11 AM

Latest Report: Jul 24, 2016 at 2:35 AM


Visibility: 1 mi

Pressure: 29.98 "Hg

Humidity: 89%

Dew Point: 73 °F

Location of French LickLocation

Past Weather in French Lick — Graph

°F

French Lick Temperature Yesterday

Maximum temperature yesterday: 91 °F (at 4:35 PM)
Minimum temperature yesterday: 72 °F (at 3:55 AM)
Average temperature yesterday: 81 °F

High & Low Weather Summary for the Past Weeks

 TemperatureHumidityPressure
High91 °F (Jul 19, 6:35 PM)94% (Jul 10, 6:15 AM)30.28 "Hg (Jul 10, 6:15 AM)
Low63 °F (Jul 10, 6:15 AM)46% (Jul 11, 4:15 PM)29.92 "Hg (Jul 12, 6:35 PM)
Average77 °F77%30.07 "Hg
* Reported Jul 9 1:15 AM — Jul 24 1:55 AM, French Lick, Weather by CustomWeather, © 2016

Note: Actual official high and low records may vary slightly from our data, if they occured in-between our weather recording intervals... More about our weather records

Advertising

French Lick Weather History for the Previous 24 Hours

Scroll right to see more
 ConditionsComfort  
Time TempWeatherWind HumidityBarometerVisibility
1:55 AM
Sun, Jul 24
77 °FClear.3 mph89%29.98 "Hg2 mi
1:35 AM77 °FClear.No wind89%29.97 "Hg2 mi
1:15 AM77 °FClear.No wind89%29.97 "Hg3 mi
12:55 AM77 °FClear.3 mph89%29.97 "Hg3 mi
12:35 AM77 °FClear.3 mph89%29.97 "Hg4 mi
12:15 AM79 °FClear.No wind84%29.98 "Hg5 mi
11:55 PM
Sat, Jul 23
79 °FClear.No wind84%29.98 "Hg5 mi
11:35 PM79 °FClear.No wind84%29.99 "Hg5 mi
11:15 PM79 °FClear.3 mph84%29.99 "Hg4 mi
10:55 PM79 °FClear.3 mph84%29.99 "Hg6 mi
10:35 PM81 °FClear.No wind84%29.99 "Hg7 mi
9:55 PM81 °FSunny.No wind79%29.97 "Hg7 mi
9:35 PM81 °FSunny.5 mph84%29.96 "Hg8 mi
9:15 PM82 °FSunny.No wind79%29.95 "Hg8 mi
8:55 PM84 °FSunny.No wind74%29.95 "Hg10 mi
8:35 PM86 °FSunny.No wind75%29.94 "Hg10 mi
8:15 PM90 °FSunny.No wind67%29.94 "Hg10 mi
7:55 PM90 °FSunny.No wind63%29.94 "Hg10 mi
7:35 PM90 °FSunny.No wind63%29.93 "Hg10 mi
7:15 PM90 °FSunny.3 mph59%29.93 "Hg10 mi
6:55 PM91 °FSunny.No wind59%29.93 "Hg10 mi
6:35 PM90 °FSunny.No wind63%29.93 "Hg10 mi
6:15 PM91 °FSunny.No wind59%29.94 "Hg10 mi
5:55 PM90 °FSunny.No wind63%29.95 "Hg10 mi
5:35 PM91 °FPassing clouds.3 mph56%29.96 "Hg10 mi
5:15 PM91 °FSunny.No wind59%29.97 "Hg10 mi
4:55 PM91 °FSunny.3 mph59%29.97 "Hg10 mi
4:35 PM91 °FSunny.6 mph59%29.98 "Hg10 mi
4:15 PM90 °FPassing clouds.5 mph63%29.99 "Hg10 mi
3:55 PM90 °FPassing clouds.5 mph63%29.99 "Hg9 mi
3:35 PM90 °FPassing clouds.7 mph63%29.99 "Hg8 mi
3:15 PM90 °FPassing clouds.6 mph63%29.99 "Hg9 mi
2:55 PM90 °FScattered clouds.7 mph67%30.00 "Hg8 mi
2:35 PM90 °FPassing clouds.6 mph67%30.00 "Hg10 mi
2:15 PM90 °FPassing clouds.7 mph63%30.00 "Hg10 mi
1:55 PM88 °FScattered clouds.6 mph66%30.00 "Hg10 mi
1:35 PM90 °FScattered clouds.3 mph63%30.01 "Hg10 mi
1:15 PM90 °FScattered clouds.6 mph63%30.00 "Hg10 mi
12:55 PM88 °FPassing clouds.3 mph66%30.01 "Hg10 mi
12:35 PM88 °FPassing clouds.6 mph66%30.01 "Hg10 mi
12:15 PM88 °FSunny.3 mph66%30.01 "Hg10 mi
11:55 AM86 °FSunny.7 mph70%30.01 "Hg10 mi
11:35 AM84 °FSunny.7 mph70%30.01 "Hg10 mi
11:15 AM84 °FSunny.7 mph70%30.01 "Hg10 mi
10:55 AM82 °FSunny.8 mph74%30.01 "Hg10 mi
10:35 AM82 °FSunny.8 mph74%30.02 "Hg10 mi
10:15 AM81 °FSunny.7 mph79%30.02 "Hg10 mi
9:55 AM81 °FSunny.7 mph74%30.03 "Hg10 mi
9:35 AM79 °FSunny.6 mph79%30.03 "Hg10 mi
9:15 AM77 °FSunny.5 mph83%30.03 "Hg10 mi
8:55 AM75 °FSunny.7 mph89%30.02 "Hg10 mi
8:35 AM75 °FSunny.3 mph89%30.02 "Hg10 mi
8:15 AM73 °FSunny.No wind89%30.02 "Hg8 mi
7:55 AM73 °FSunny.No wind89%30.01 "Hg5 mi
7:35 AM72 °FClear.3 mph88%30.01 "Hg4 mi
7:15 AM72 °FDense fog.No wind88%30.01 "Hg1 mi
6:55 AM72 °FDense fog.No wind88%30.01 "Hg1 mi
6:35 AM72 °FClear.No wind88%30.01 "Hg2 mi
6:15 AM72 °FClear.No wind88%30.01 "Hg3 mi
5:55 AM72 °FClear.No wind88%30.01 "Hg5 mi
5:35 AM72 °FClear.No wind88%30.01 "Hg5 mi
5:15 AM72 °FClear.No wind88%30.01 "Hg8 mi
4:55 AM72 °FClear.No wind88%30.01 "Hg8 mi
4:35 AM72 °FClear.3 mph88%30.01 "Hg5 mi
4:15 AM72 °FClear.3 mph88%30.00 "Hg3 mi
3:55 AM72 °FClear.No wind94%30.00 "Hg5 mi
3:35 AM73 °FClear.No wind89%30.00 "Hg2 mi
3:15 AM73 °FClear.No wind89%30.00 "Hg3 mi
2:55 AM73 °FPassing clouds.No wind89%30.01 "Hg1 mi
2:35 AM73 °FPassing clouds.No wind89%30.01 "Hg1 mi
2:15 AM73 °FClear.No wind89%30.01 "Hg8 mi
Weather by CustomWeather, © 2016

See weather overviewHow to use our weather pages